This is the latest recevied weather packets stored in our database for station/object HB9TJM-8. If no packets are shown the sender has not sent any weather packets the latest 10 day(s).
| Time | Temp. | Humidity | Pressure | Rain* | Wind** | Luminosity | Snow |
|---|---|---|---|---|---|---|---|
| 1777784485 | 12.22° C | 49% | 1017.3 hPa | 0 mm | - | 15 W/m² | - |
| 1777784177 | 12.78° C | 48% | 1017.3 hPa | 0 mm | - | 10 W/m² | - |
| 1777783870 | 12.78° C | 47% | 1017.6 hPa | 0 mm | - | 6 W/m² | - |
| 1777783562 | 12.78° C | 43% | 1017.4 hPa | 0 mm | - | 5 W/m² | - |
| 1777783255 | 12.78° C | 43% | 1017.7 hPa | 0 mm | - | 5 W/m² | - |
| 1777782947 | 12.78° C | 43% | 1017.2 hPa | 0 mm | - | 5 W/m² | - |
| 1777782640 | 12.78° C | 45% | 1017.1 hPa | 0 mm | - | 4 W/m² | - |
| 1777782332 | 12.78° C | 44% | 1016.9 hPa | 0 mm | - | 2 W/m² | - |
| 1777782025 | 12.22° C | 47% | 1017.5 hPa | 0 mm | - | 1 W/m² | - |
| 1777781717 | 12.22° C | 46% | 1017.6 hPa | 0 mm | - | 0 W/m² | - |
| 1777781410 | 12.78° C | 46% | 1017.5 hPa | 0 mm | - | 0 W/m² | - |
| 1777781103 | 12.78° C | 45% | 1017.4 hPa | 0 mm | - | 0 W/m² | - |
| 1777780795 | 12.22° C | 45% | 1017.5 hPa | 0 mm | - | 0 W/m² | - |
| 1777780488 | 12.78° C | 46% | 1017.4 hPa | 0 mm | - | 0 W/m² | - |
| 1777780180 | 12.78° C | 45% | 1017.8 hPa | 0 mm | - | 0 W/m² | - |
| 1777779873 | 12.78° C | 44% | 1017.4 hPa | 0 mm | - | 0 W/m² | - |
| 1777779565 | 12.78° C | 44% | 1017.3 hPa | 0 mm | - | 0 W/m² | - |
| 1777779258 | 12.78° C | 44% | 1017.4 hPa | 0 mm | - | 0 W/m² | - |
| 1777778950 | 12.78° C | 45% | 1017.9 hPa | 0 mm | - | 0 W/m² | - |
| 1777778643 | 12.78° C | 45% | 1017.4 hPa | 0 mm | - | 0 W/m² | - |
| 1777778335 | 12.78° C | 46% | 1017.4 hPa | 0 mm | - | 0 W/m² | - |
| 1777778028 | 12.78° C | 47% | 1017.9 hPa | 0 mm | - | 0 W/m² | - |
| 1777777720 | 12.78° C | 48% | 1017.7 hPa | 0 mm | - | 0 W/m² | - |
| 1777777413 | 12.22° C | 52% | 1017.7 hPa | 0 mm | - | 0 W/m² | - |
| 1777777106 | 12.78° C | 51% | 1017.6 hPa | 0 mm | - | 0 W/m² | - |
* Rain latest hour (hover to see other rain measurements)
** Current wind speed in m/s (hover to see current wind gust speed)